Location: El Milagro
(32.3613°N, 116.6289°W)
Time: 05:35:38
(UTC+00:00)

Daily predictions for brighter satellites

Satellite Brightness Start Highest point End
(mag) Time Altitude Azimuth Time Altitude Azimuth Time Altitude Azimuth
Cosmos 2333 Rocket 4.1 02:18:46 10° NW 02:23:56 35° WSW 02:29:03 10° SSW
Cosmos 2100 Rocket 4.0 02:17:37 10° N 02:23:58 79° E 02:30:12 10° S
Cosmos 1331 Rocket 4.0 02:19:55 10° SSW 02:25:02 81° ESE 02:30:12 10° NNE
GPS 2-04 Rocket1 2.6 02:23:31 10° SW 02:26:56 52° SSE 02:30:25 10° E
CZ-4B R/B 4.4 02:25:48 10° S 02:29:22 39° W 02:33:09 10° NNW
Cosmos 2227 Rocket 2.3 02:25:41 10° S 02:31:11 55° ESE 02:36:41 10° NNE
Cosmos 2219 3.6 02:27:41 10° S 02:32:51 39° ESE 02:38:01 10° NE
YAOGAN 1 2.6 02:28:49 10° SSE 02:33:02 57° ENE 02:37:16 10° N
Okean 1-7 3.6 02:28:58 10° NNW 02:33:15 64° W 02:37:28 10° S
COSMOS 2428 2.9 02:29:05 10° NNW 02:34:50 82° WSW 02:40:33 10° SSE
Meteor 1-21 4.4 02:34:03 10° N 02:39:43 83° W 02:45:25 10° S
Cosmos 2098 Rocket 4.2 02:38:02 10° SSW 02:43:30 73° W 02:50:05 10° N
Cosmos 1766 3.7 02:41:44 10° SSE 02:45:13 36° E 02:48:43 10° NNE
USA 281 3.7 02:43:11 10° NNE 02:49:41 65° WNW 02:56:09 10° SW
NOSS 0 Rocket 3.9 02:43:30 10° NNW 02:49:42 79° ENE 02:55:50 10° SSE
Cosmos 1733 4.5 02:46:09 10° SSW 02:49:45 44° W 02:53:21 10° N
ATLAS 2AS CENTAUR R/B 4.2 02:45:45 10° SE 02:49:53 15° ESE 02:53:58 10° ENE
Cosmos 2233 Rocket 4.3 02:44:48 10° N 02:50:40 44° E 02:56:33 10° SSE
Cosmos 1726 2.8 02:48:25 10° SSW 02:51:50 53° W 02:55:16 10° N
Cosmos 1805 4.0 02:48:33 10° SSW 02:52:17 56° W 02:56:02 10° N
Cosmos 1864 Rocket 4.4 02:48:39 10° N 02:54:49 82° E 03:00:55 10° S
SL-16 R/B 3.8 02:53:20 10° NNE 02:56:42 16° ENE 02:58:33 14° E
ATLAS 3B CENTAUR R/B 1.4 02:54:43 10° WSW 02:57:21 30° S 02:58:31 21° SE
MINOTAUR 4 R/B 4.0 02:54:18 10° N 02:57:42 81° WNW 03:01:06 10° SSW
Okean O Rocket 1.7 02:55:33 10° SSE 02:59:50 53° ENE 03:04:06 10° N
Milstar 3 Cent rocket 4.4 02:55:58 10° WSW 03:00:50 25° SSW 03:08:30 10° SE
Iridium 4 Rocket 2.9 02:57:31 10° N 03:01:43 74° E 03:06:07 10° S
Okean-O 4.0 03:02:05 18° E 03:02:59 19° ENE 03:06:05 10° NNE
Cosmos 1741 Rocket 3.9 02:58:00 10° NNW 03:03:14 87° ENE 03:08:26 10° SSE
Blok-L 3.4 03:01:54 10° SSW 03:08:19 64° ESE 03:11:55 10° NE
NOSS 3-4 (A) 4.0 03:03:01 10° SW 03:08:26 55° WNW 03:14:08 10° NNE
NOSS 3-4 (C) 3.9 03:03:07 10° SW 03:08:32 56° WNW 03:14:14 10° NNE
Cosmos 2263 Rocket 2.9 03:04:43 10° SSE 03:09:22 28° ESE 03:14:02 10° NE
Cosmos 2221 Rocket 4.4 03:06:43 10° NNE 03:10:34 29° E 03:11:52 25° ESE
USA 267 4.0 03:06:58 18° E 03:11:11 37° NE 03:17:04 10° NNW
Atlas Centaur 2 1.9 03:07:27 10° WSW 03:11:28 50° SSE 03:14:00 25° ESE
NOSS 2-1 (C) 2.9 03:07:40 10° SSW 03:11:35 89° WNW 03:14:49 10° NNE
Cosmos 1302 Rocket 4.2 03:09:26 10° SSW 03:14:42 75° WNW 03:19:59 10° NNE
NOSS 2-1 (D) 3.1 03:12:27 10° SSW 03:16:28 77° WNW 03:19:45 10° NNE
CZ-4 R/B 1.6 03:14:32 10° S 03:18:18 66° WSW 03:22:11 10° NNW
Cosmos 1725 Rocket 4.4 03:13:53 10° NNW 03:19:59 64° W 03:26:07 10° S
Cosmos 1271 Rocket 2.7 03:17:16 10° S 03:21:00 79° W 03:24:44 10° N
Meteor 1-12 Rocket 4.2 03:19:15 10° S 03:24:57 62° E 03:30:35 10° NNE
CENTAUR R/B 4.1 03:16:33 10° NW 03:24:58 51° WSW 03:33:39 10° S
Cosmos 2237 Rocket 2.2 03:21:19 10° NNW 03:26:57 82° WSW 03:32:09 12° SSE
Cosmos 2061 Rocket 4.4 03:20:58 10° NNW 03:27:19 67° W 03:33:35 10° S
Meteor 2-5 Rocket 4.4 03:28:58 10° NNE 03:34:17 34° ENE 03:34:56 33° E
CSL-04 Debris 4.1 03:31:43 19° SSE 03:35:37 73° ENE 03:41:04 10° N
CZ-4B R/B 4.4 03:32:50 10° S 03:38:13 44° W 03:43:34 10° NNW
SJ-6B 2.9 03:36:07 21° S 03:38:36 70° W 03:42:24 10° NNW
Cosmos 2346 Rocket 4.3 03:34:46 10° S 03:40:49 68° E 03:46:58 10° NNE
Cosmos 1470 2.6 03:40:54 22° S 03:43:20 89° W 03:47:15 10° N
Delta 2 Rocket 3.2 03:44:28 10° WNW 03:48:21 65° SW 03:48:21 65° SW
NOSS 3-2 (C) 4.5 03:40:42 10° NW 03:48:44 69° WSW 03:56:13 16° SSE
Cosmos 1992 Rocket 4.0 03:44:41 10° SSW 03:49:52 79° WNW 03:55:05 10° NNE
Intercosmos 25 Rocket 3.6 03:49:34 10° N 03:54:40 72° W 03:55:20 57° SSW
ISS -1.0 03:55:15 10° N 03:55:42 12° N 03:55:42 12° N
Meteor 1-22 Rocket 4.4 03:52:48 10° S 03:58:55 85° W 04:05:00 10° N
Landsat 5 3.4 03:55:05 10° N 03:59:02 78° WNW 03:59:02 78° WNW
USA 186 3.4 03:59:25 31° W 03:59:25 31° W 04:02:08 10° NNW
Cosmos 1464 Rocket 4.1 03:53:10 10° N 03:59:22 52° E 03:59:42 51° E
IRS-1C Rocket 3.9 03:59:57 66° E 04:00:16 68° ENE 04:05:31 10° N
Cosmos 1674 Rocket 3.5 03:56:35 10° N 04:00:48 80° WNW 04:00:48 80° WNW
USA 238 DEB 4.2 03:55:30 10° NW 04:03:00 68° WSW 04:07:29 28° S
USA 238 4.2 03:55:36 10° NW 04:03:07 68° WSW 04:07:32 28° S
Hubble Space Telescope 2.9 03:59:57 10° SW 04:01:14 17° SSW 04:01:14 17° SSW
GPS 2-04 Rocket1 3.8 04:01:22 10° W 04:03:49 38° WNW 04:03:49 38° WNW
CZ-4C R/B 3.6 03:58:22 10° NNW 04:05:28 39° NE 04:06:35 37° ENE
Cosmos 1378 Rocket 3.9 04:03:34 10° NNW 04:07:57 63° W 04:08:16 61° WSW
Cosmos 1891 Rocket 4.4 04:02:15 10° N 04:08:31 83° E 04:10:12 52° SSE
Cosmos 2082 4.5 04:03:27 10° SW 04:08:52 50° WNW 04:14:19 10° N
Resurs 01 Rocket 2.6 04:13:10 38° N 04:13:10 38° N 04:15:58 10° N
Intelsat 5-1 Rocket 4.2 04:12:05 10° WSW 04:16:59 38° S 04:17:33 37° S
Meteor 1-24 Rocket 3.8 04:18:14 10° N 04:24:09 86° NNE 04:24:09 86° NNE
Cosmos 1816 Rocket 4.4 04:26:27 70° NNE 04:26:27 70° NNE 04:31:51 10° N
SJ 16-02 3.5 04:23:36 10° N 04:24:50 18° N 04:24:50 18° N
SPOT 1/Viking Rocket 3.9 04:30:33 60° W 04:30:33 60° W 04:35:25 10° NNW
FALCON 9 R/B 4.4 04:27:20 10° WSW 04:34:27 43° S 04:39:36 36° SSE
Okean-O 4.4 04:39:37 29° W 04:39:37 29° W 04:43:04 10° NW
ATLAS 2AS CENTAUR R/B 2.8 04:32:16 10° SSW 04:40:00 86° WNW 04:47:33 10° NNE
SL-16 R/B 2.7 04:35:37 10° NNW 04:40:29 56° WNW 04:40:29 56° WNW
Cosmos 2263 Rocket 3.8 04:48:15 10° SW 04:53:06 31° WNW 04:58:00 10° N
USA 267 3.7 04:54:19 54° WSW 04:54:19 54° WSW 05:00:20 10° NW
Atlas Centaur 2 4.1 04:55:15 10° W 04:56:26 18° W 04:56:26 18° W
FALCON 9 R/B 3.8 05:21:32 10° WNW 05:33:51 51° W 05:33:51 51° W
CZ-4C R/B 4.1 05:46:38 10° NW 05:51:46 39° WNW 05:51:46 39° WNW
Cosmos 2154 Rocket 4.1 11:04:26 68° ESE 11:04:47 69° E 11:11:00 10° NNE
CZ-2C R/B 3.1 11:08:16 45° SE 11:09:45 61° ENE 11:15:12 10° N
CBERS-1 4.4 11:09:45 10° NNE 11:14:01 61° NE 11:14:01 61° NE
Cosmos 1607 3.8 11:16:57 84° N 11:16:57 84° N 11:22:58 10° NNE
Helios 1A 4.2 11:20:55 37° NNE 11:20:55 37° NNE 11:23:52 10° N
Cosmos 1610 Rocket 4.4 11:19:41 61° SSE 11:20:48 79° E 11:26:58 10° N
PAYLOAD A 4.2 11:16:55 10° NNE 11:21:23 65° N 11:21:23 65° N
ALOS 4.3 11:21:06 10° N 11:22:30 19° NNW 11:22:30 19° NNW
Cosmos 2074 Rocket 4.3 11:27:45 49° NW 11:27:45 49° NW 11:32:56 10° N
COSMOS 2455 2.8 11:31:01 63° SSW 11:32:02 86° ESE 11:38:06 10° NNE
Sich 1 4.1 11:29:08 10° N 11:33:20 44° E 11:37:30 10° SSE
CZ-2C R/B 3.0 11:30:51 10° N 11:34:30 45° NNW 11:34:30 45° NNW
Envisat 3.2 11:30:48 10° NNE 11:35:51 67° ESE 11:37:36 40° S
SL-19 R/B 4.1 11:34:08 10° NNE 11:39:20 76° ESE 11:41:17 39° S
Cosmos 1656 3.4 11:43:11 64° SW 11:43:58 77° WNW 11:49:26 10° NNE
SAR-Lupe-2 3.7 11:47:03 10° NNE 11:50:30 71° E 11:50:30 71° E
Cosmos 1743 Rocket 3.4 11:46:41 10° N 11:51:08 74° W 11:51:32 68° SW
Cosmos 44 Rocket 4.2 11:48:58 23° S 11:51:29 43° ESE 11:55:59 10° NE
Helios 1B rocket 3.7 11:50:32 10° NNE 11:54:15 38° E 11:57:58 10° SSE
